Flag for Canada Weather past 2 weeks in Conception Bay South, Newfoundland and Labrador, Canada

Now
70 °F

Mostly cloudy.


Feels Like: 70 °F
Forecast: 66 / 77 °F
Wind: 16 mph from Southwest

Location: St. John's

Current Time: Aug 2, 2014 at 12:15:19 AM

Latest Report: Aug 1, 2014 at 11:30 PM


Visibility: 15 mi

Pressure: 30.26 "Hg

Humidity: 94%

Dew point: 68 °F

Location of Conception Bay SouthLocation

Historic Weather in Conception Bay South — Graph

°F

Conception Bay South temperature yesterday

Maximum temperature yesterday: 79 °F (at 12:30 PM)
Minimum temperature yesterday: 68 °F (at 5:30 AM)
Average temperature yesterday: 73 °F

Past Weeks' High & Low Weather Summary

 TemperatureHumidityPressure
High84 °F (Jul 21, 2:30 PM)100% (Jul 18, 3:30 AM)30.34 "Hg (Jul 18, 3:30 AM)
Low48 °F (Jul 20, 1:30 AM)27% (Jul 21, 3:30 PM)29.66 "Hg (Jul 26, 2:30 AM)
Average68 °F77%30.07 "Hg
* Reported Jul 17 10:30 PM — Aug 1 10:30 PM, Conception Bay South, Weather by CustomWeather, © 2014

Note: Actual official high and low records may vary slightly from our data, if they occured in-between our weather recording intervals... More about our weather records

Advertising

Conception Bay South weather history for previous 24 hours

 ConditionsComfort  
Time TempWeatherWind HumidityBarometerVisibility
10:30 PM
Aug 1
72 °FPassing clouds.17 mph88%30.27 "Hg15 mi
9:30 PM72 °FPassing clouds.16 mph88%30.27 "Hg15 mi
8:30 PM72 °FPartly sunny.14 mph88%30.27 "Hg15 mi
7:30 PM73 °FBroken clouds.15 mph83%30.27 "Hg15 mi
6:30 PM73 °FMore clouds than sun.20 mph83%30.27 "Hg15 mi
5:30 PM75 °FMore clouds than sun.17 mph83%30.28 "Hg15 mi
4:30 PM75 °FMostly cloudy.18 mph83%30.29 "Hg15 mi
3:30 PM79 °FMostly cloudy.20 mph74%30.29 "Hg15 mi
2:30 PM77 °FMostly cloudy.18 mph79%30.30 "Hg15 mi
1:30 PM79 °FMostly cloudy.17 mph74%30.31 "Hg15 mi
12:30 PM79 °FBroken clouds.14 mph74%30.32 "Hg15 mi
11:30 AM75 °FBroken clouds.16 mph83%30.34 "Hg15 mi
10:30 AM75 °FBroken clouds.16 mph83%30.34 "Hg15 mi
9:30 AM75 °FPartly sunny.14 mph83%30.34 "Hg15 mi
8:30 AM73 °FBroken clouds.14 mph89%30.32 "Hg15 mi
7:30 AM70 °FBroken clouds.13 mph94%30.31 "Hg12 mi
6:30 AM70 °FPartly sunny.10 mph94%30.31 "Hg15 mi
5:30 AM68 °FPassing clouds.13 mph100%30.31 "Hg15 mi
4:30 AM70 °FPassing clouds.15 mph94%30.32 "Hg15 mi
3:30 AM70 °FLow clouds.16 mph100%30.33 "Hg15 mi
2:30 AM70 °FPassing clouds.15 mph94%30.33 "Hg15 mi
1:30 AM70 °FPassing clouds.17 mph94%30.33 "Hg15 mi
12:30 AM70 °FPassing clouds.16 mph94%30.33 "Hg15 mi
Weather by CustomWeather, © 2014

See weather overviewHow to use our weather pages